Flag for Germany Weather past 2 weeks in Bad Hersfeld, Hesse, Germany

Now
37 °F

Snow flurries. Passing clouds.


Feels Like: 28 °F
Forecast: 34 / 42 °F
Wind: 15 mph from West

Location: Fritzlar Airport

Current Time: Apr 1, 2015 at 7:05:38 AM

Latest Report: Apr 1, 2015 at 6:20 AM


Visibility: 4 mi

Pressure: 29.80 "Hg

Humidity: 70%

Dew point: 28 °F

Location of Bad HersfeldLocation

Historic Weather in Bad Hersfeld — Graph

°F

Bad Hersfeld temperature yesterday

Maximum temperature yesterday: 52 °F (at 8:20 AM)
Minimum temperature yesterday: 39 °F (at 12:20 AM)
Average temperature yesterday: 45 °F

Past Weeks' High & Low Weather Summary

 TemperatureHumidityPressure
High64 °F (Mar 25, 3:20 PM)100% (Mar 18, 6:20 AM)30.33 "Hg (Mar 18, 6:20 AM)
Low25 °F (Mar 23, 5:20 AM)40% (Mar 25, 4:20 PM)29.24 "Hg (Mar 31, 6:20 AM)
Average43 °F76%29.93 "Hg
* Reported Mar 17 4:20 AM — Apr 1 5:20 AM, Bad Hersfeld, Weather by CustomWeather, © 2015

Note: Actual official high and low records may vary slightly from our data, if they occured in-between our weather recording intervals... More about our weather records

Advertising

Bad Hersfeld weather history for previous 24 hours

 ConditionsComfort  
Time TempWeatherWind HumidityBarometerVisibility
5:20 AM
Wed, Apr 1
39 °FPassing clouds.17 mph61%29.77 "HgN/A
4:20 AM39 °FPassing clouds.17 mph61%29.77 "HgN/A
3:20 AM39 °FPassing clouds.16 mph65%29.77 "HgN/A
2:20 AM39 °FPassing clouds.16 mph61%29.74 "HgN/A
1:20 AM39 °FPassing clouds.20 mph65%29.74 "HgN/A
12:20 AM39 °FPassing clouds.13 mph70%29.71 "HgN/A
11:20 PM
Tue, Mar 31
39 °FPassing clouds.16 mph70%29.71 "HgN/A
10:20 PM41 °FPassing clouds.16 mph70%29.71 "HgN/A
9:20 PM43 °FPassing clouds.10 mph71%29.68 "HgN/A
8:20 PM41 °FRain showers. Broken clouds.21 mph81%29.71 "Hg4 mi
7:20 PM46 °FScattered clouds.21 mph46%29.65 "HgN/A
6:20 PM46 °FPassing clouds.16 mph57%29.62 "HgN/A
5:20 PM48 °FScattered showers. Partly sunny.20 mph58%29.56 "HgN/A
5:00 PM48 °FSprinkles. Partly sunny.25 mph54%29.53 "HgN/A
2:20 PM46 °FSprinkles. Scattered clouds.28 mph71%29.45 "HgN/A
2:02 PM52 °FScattered showers. Broken clouds.26 mph58%29.42 "HgN/A
1:20 PM52 °FScattered clouds.23 mph62%29.39 "HgN/A
12:20 PM52 °FScattered showers. Scattered clouds.21 mph62%29.39 "HgN/A
11:20 AM50 °FSprinkles. Partly sunny.20 mph67%29.36 "HgN/A
10:20 AM48 °FBroken clouds.20 mph71%29.30 "HgN/A
9:20 AM50 °FRain. Broken clouds.20 mph82%29.24 "HgN/A
8:58 AM52 °FRain. Broken clouds.22 mph77%29.24 "HgN/A
8:20 AM52 °FLight rain. Partly sunny.25 mph77%29.24 "HgN/A
7:20 AM48 °FLight rain. Partly cloudy.16 mph87%29.24 "Hg6 mi
Weather by CustomWeather, © 2015

See weather overviewHow to use our weather pages